iso_date,epoch_date,Year,Hour,Min,DOY,POS_DOY,Lat,Lon,BP,Ts,Ta,has_bp,has_ts,has_ta,BuoyID,Buoy_Type,Buoy_Owner,Logistics,Hemisphere
2020-09-24T09:00:00Z,1600938000,2020,9,0,268.375,268.375,82.0168,2.7348,-999.00,-5.7,-999.0,no,yes,no,300234066890260,unknown,unknown,unknown,North
2020-09-24T10:00:02Z,1600941603,2020,10,0,268.4167,268.4167,82.0014,2.7394,-999.00,-5.8,-999.0,no,yes,no,300234066890260,unknown,unknown,unknown,North
2020-09-24T10:59:57Z,1600945197,2020,11,0,268.4583,268.4583,81.9838,2.7384,-999.00,-5.9,-999.0,no,yes,no,300234066890260,unknown,unknown,unknown,North
2020-09-24T12:00:00Z,1600948800,2020,12,0,268.5,268.5,81.9656,2.7258,-999.00,-5.9,-999.0,no,yes,no,300234066890260,unknown,unknown,unknown,North
2020-09-24T13:00:02Z,1600952403,2020,13,0,268.5417,268.5417,81.9486,2.7026,-999.00,-5.8,-999.0,no,yes,no,300234066890260,unknown,unknown,unknown,North
2020-09-24T13:59:57Z,1600955997,2020,14,0,268.5833,268.5833,81.9332,2.676,-999.00,-5.8,-999.0,no,yes,no,300234066890260,unknown,unknown,unknown,North
2020-09-24T15:00:00Z,1600959600,2020,15,0,268.625,268.625,81.9194,2.6526,-999.00,-5.9,-999.0,no,yes,no,300234066890260,unknown,unknown,unknown,North
2020-09-24T16:00:02Z,1600963203,2020,16,0,268.6667,268.6667,81.9072,2.6394,-999.00,-5.9,-999.0,no,yes,no,300234066890260,unknown,unknown,unknown,North
2020-09-24T16:59:57Z,1600966797,2020,17,0,268.7083,268.7083,81.8968,2.6396,-999.00,-5.8,-999.0,no,yes,no,300234066890260,unknown,unknown,unknown,North
2020-09-24T18:00:00Z,1600970400,2020,18,0,268.75,268.75,81.8868,2.6534,-999.00,-5.9,-999.0,no,yes,no,300234066890260,unknown,unknown,unknown,North
2020-09-24T19:00:02Z,1600974003,2020,19,0,268.7917,268.7917,81.878,2.6826,-999.00,-5.8,-999.0,no,yes,no,300234066890260,unknown,unknown,unknown,North
2020-09-24T19:59:57Z,1600977597,2020,20,0,268.8333,268.8333,81.868,2.7292,-999.00,-5.9,-999.0,no,yes,no,300234066890260,unknown,unknown,unknown,North
2020-09-24T21:00:00Z,1600981200,2020,21,0,268.875,268.875,81.8556,2.7844,-999.00,-6.0,-999.0,no,yes,no,300234066890260,unknown,unknown,unknown,North
2020-09-24T22:00:02Z,1600984803,2020,22,0,268.9167,268.9167,81.842,2.8382,-999.00,-6.0,-999.0,no,yes,no,300234066890260,unknown,unknown,unknown,North
2020-09-24T22:59:57Z,1600988397,2020,23,0,268.9583,268.9583,81.8274,2.8878,-999.00,-6.0,-999.0,no,yes,no,300234066890260,unknown,unknown,unknown,North
2020-09-25T00:00:00Z,1600992000,2020,0,0,269.0,269.0,81.8128,2.9304,-999.00,-5.9,-999.0,no,yes,no,300234066890260,unknown,unknown,unknown,North
2020-09-25T01:00:02Z,1600995603,2020,1,0,269.0417,269.0417,81.7982,2.9702,-999.00,-6.0,-999.0,no,yes,no,300234066890260,unknown,unknown,unknown,North
2020-09-25T01:59:57Z,1600999197,2020,2,0,269.0833,269.0833,81.7846,3.0062,-999.00,-5.9,-999.0,no,yes,no,300234066890260,unknown,unknown,unknown,North
2020-09-25T03:00:00Z,1601002800,2020,3,0,269.125,269.125,81.7748,3.0378,-999.00,-5.9,-999.0,no,yes,no,300234066890260,unknown,unknown,unknown,North
2020-09-25T04:00:02Z,1601006403,2020,4,0,269.1667,269.1667,81.7668,3.068,-999.00,-6.0,-999.0,no,yes,no,300234066890260,unknown,unknown,unknown,North
2020-09-25T04:59:57Z,1601009997,2020,5,0,269.2083,269.2083,81.7602,3.1028,-999.00,-6.0,-999.0,no,yes,no,300234066890260,unknown,unknown,unknown,North
2020-09-25T06:00:00Z,1601013600,2020,6,0,269.25,269.25,81.7554,3.1518,-999.00,-5.9,-999.0,no,yes,no,300234066890260,unknown,unknown,unknown,North
2020-09-25T07:00:02Z,1601017203,2020,7,0,269.2917,269.2917,81.7508,3.2136,-999.00,-6.0,-999.0,no,yes,no,300234066890260,unknown,unknown,unknown,North
2020-09-25T07:59:57Z,1601020797,2020,8,0,269.3333,269.3333,81.7436,3.278,-999.00,-6.1,-999.0,no,yes,no,300234066890260,unknown,unknown,unknown,North
2020-09-25T09:00:00Z,1601024400,2020,9,0,269.375,269.375,81.7346,3.3358,-999.00,-6.1,-999.0,no,yes,no,300234066890260,unknown,unknown,unknown,North
2020-09-25T10:00:02Z,1601028003,2020,10,0,269.4167,269.4167,81.7254,3.3768,-999.00,-6.1,-999.0,no,yes,no,300234066890260,unknown,unknown,unknown,North
2020-09-25T10:59:57Z,1601031597,2020,11,0,269.4583,269.4583,81.7172,3.4032,-999.00,-6.1,-999.0,no,yes,no,300234066890260,unknown,unknown,unknown,North
2020-09-25T12:00:00Z,1601035200,2020,12,0,269.5,269.5,81.7106,3.4164,-999.00,-6.0,-999.0,no,yes,no,300234066890260,unknown,unknown,unknown,North
2020-09-25T13:00:02Z,1601038803,2020,13,0,269.5417,269.5417,81.7062,3.4242,-999.00,-6.0,-999.0,no,yes,no,300234066890260,unknown,unknown,unknown,North
2020-09-25T13:59:57Z,1601042397,2020,14,0,269.5833,269.5833,81.7038,3.423,-999.00,-6.0,-999.0,no,yes,no,300234066890260,unknown,unknown,unknown,North
2020-09-25T15:00:00Z,1601046000,2020,15,0,269.625,269.625,81.7046,3.4172,-999.00,-6.0,-999.0,no,yes,no,300234066890260,unknown,unknown,unknown,North
2020-09-25T16:00:02Z,1601049603,2020,16,0,269.6667,269.6667,81.707,3.4232,-999.00,-6.2,-999.0,no,yes,no,300234066890260,unknown,unknown,unknown,North
2020-09-25T16:59:57Z,1601053197,2020,17,0,269.7083,269.7083,81.7096,3.4482,-999.00,-6.3,-999.0,no,yes,no,300234066890260,unknown,unknown,unknown,North
2020-09-25T18:00:00Z,1601056800,2020,18,0,269.75,269.75,81.7114,3.4878,-999.00,-6.5,-999.0,no,yes,no,300234066890260,unknown,unknown,unknown,North
2020-09-25T19:00:02Z,1601060403,2020,19,0,269.7917,269.7917,81.7118,3.5386,-999.00,-6.7,-999.0,no,yes,no,300234066890260,unknown,unknown,unknown,North
2020-09-25T19:59:57Z,1601063997,2020,20,0,269.8333,269.8333,81.7112,3.5934,-999.00,-7.0,-999.0,no,yes,no,300234066890260,unknown,unknown,unknown,North
2020-09-25T21:00:00Z,1601067600,2020,21,0,269.875,269.875,81.7088,3.6434,-999.00,-7.4,-999.0,no,yes,no,300234066890260,unknown,unknown,unknown,North
2020-09-25T22:00:02Z,1601071203,2020,22,0,269.9167,269.9167,81.7052,3.6864,-999.00,-7.8,-999.0,no,yes,no,300234066890260,unknown,unknown,unknown,North
2020-09-25T22:59:57Z,1601074797,2020,23,0,269.9583,269.9583,81.7008,3.7154,-999.00,-8.1,-999.0,no,yes,no,300234066890260,unknown,unknown,unknown,North
2020-09-26T00:00:00Z,1601078400,2020,0,0,270.0,270.0,81.6954,3.7296,-999.00,-8.5,-999.0,no,yes,no,300234066890260,unknown,unknown,unknown,North
2020-09-26T01:00:02Z,1601082003,2020,1,0,270.0417,270.0417,81.6898,3.7278,-999.00,-8.8,-999.0,no,yes,no,300234066890260,unknown,unknown,unknown,North
2020-09-26T01:59:57Z,1601085597,2020,2,0,270.0833,270.0833,81.6866,3.715,-999.00,-9.1,-999.0,no,yes,no,300234066890260,unknown,unknown,unknown,North
2020-09-26T03:00:00Z,1601089200,2020,3,0,270.125,270.125,81.6864,3.7048,-999.00,-9.3,-999.0,no,yes,no,300234066890260,unknown,unknown,unknown,North
2020-09-26T04:00:02Z,1601092803,2020,4,0,270.1667,270.1667,81.6878,3.704,-999.00,-9.0,-999.0,no,yes,no,300234066890260,unknown,unknown,unknown,North
2020-09-26T04:59:57Z,1601096397,2020,5,0,270.2083,270.2083,81.6888,3.7182,-999.00,-8.4,-999.0,no,yes,no,300234066890260,unknown,unknown,unknown,North
2020-09-26T06:00:00Z,1601100000,2020,6,0,270.25,270.25,81.6888,3.7448,-999.00,-7.7,-999.0,no,yes,no,300234066890260,unknown,unknown,unknown,North
2020-09-26T07:00:02Z,1601103603,2020,7,0,270.2917,270.2917,81.6882,3.7758,-999.00,-7.2,-999.0,no,yes,no,300234066890260,unknown,unknown,unknown,North
2020-09-26T07:59:57Z,1601107197,2020,8,0,270.3333,270.3333,81.6864,3.8064,-999.00,-7.1,-999.0,no,yes,no,300234066890260,unknown,unknown,unknown,North
2020-09-26T09:00:00Z,1601110800,2020,9,0,270.375,270.375,81.682,3.8318,-999.00,-7.0,-999.0,no,yes,no,300234066890260,unknown,unknown,unknown,North
2020-09-26T10:00:02Z,1601114403,2020,10,0,270.4167,270.4167,81.6778,3.8376,-999.00,-7.1,-999.0,no,yes,no,300234066890260,unknown,unknown,unknown,North
2020-09-26T10:59:57Z,1601117997,2020,11,0,270.4583,270.4583,81.6734,3.8272,-999.00,-7.4,-999.0,no,yes,no,300234066890260,unknown,unknown,unknown,North
2020-09-26T12:00:00Z,1601121600,2020,12,0,270.5,270.5,81.6704,3.8138,-999.00,-7.6,-999.0,no,yes,no,300234066890260,unknown,unknown,unknown,North
2020-09-26T13:00:02Z,1601125203,2020,13,0,270.5417,270.5417,81.6688,3.8024,-999.00,-7.8,-999.0,no,yes,no,300234066890260,unknown,unknown,unknown,North
2020-09-26T13:59:57Z,1601128797,2020,14,0,270.5833,270.5833,81.6686,3.7936,-999.00,-7.9,-999.0,no,yes,no,300234066890260,unknown,unknown,unknown,North
2020-09-26T15:00:00Z,1601132400,2020,15,0,270.625,270.625,81.6696,3.7988,-999.00,-7.9,-999.0,no,yes,no,300234066890260,unknown,unknown,unknown,North
2020-09-26T16:00:02Z,1601136003,2020,16,0,270.6667,270.6667,81.6714,3.8244,-999.00,-7.6,-999.0,no,yes,no,300234066890260,unknown,unknown,unknown,North
2020-09-26T16:59:57Z,1601139597,2020,17,0,270.7083,270.7083,81.6724,3.8564,-999.00,-7.4,-999.0,no,yes,no,300234066890260,unknown,unknown,unknown,North
2020-09-26T18:00:00Z,1601143200,2020,18,0,270.75,270.75,81.6736,3.896,-999.00,-7.2,-999.0,no,yes,no,300234066890260,unknown,unknown,unknown,North
2020-09-26T19:00:02Z,1601146803,2020,19,0,270.7917,270.7917,81.6746,3.9434,-999.00,-7.0,-999.0,no,yes,no,300234066890260,unknown,unknown,unknown,North
2020-09-26T19:59:57Z,1601150397,2020,20,0,270.8333,270.8333,81.6748,3.9958,-999.00,-6.9,-999.0,no,yes,no,300234066890260,unknown,unknown,unknown,North
2020-09-26T21:00:00Z,1601154000,2020,21,0,270.875,270.875,81.6738,4.0502,-999.00,-6.9,-999.0,no,yes,no,300234066890260,unknown,unknown,unknown,North
2020-09-26T22:00:02Z,1601157603,2020,22,0,270.9167,270.9167,81.6716,4.1026,-999.00,-6.9,-999.0,no,yes,no,300234066890260,unknown,unknown,unknown,North
2020-09-26T22:59:57Z,1601161197,2020,23,0,270.9583,270.9583,81.6686,4.1468,-999.00,-7.0,-999.0,no,yes,no,300234066890260,unknown,unknown,unknown,North
2020-09-27T00:00:00Z,1601164800,2020,0,0,271.0,271.0,81.6652,4.1782,-999.00,-6.9,-999.0,no,yes,no,300234066890260,unknown,unknown,unknown,North
2020-09-27T01:00:02Z,1601168403,2020,1,0,271.0417,271.0417,81.6618,4.2022,-999.00,-6.9,-999.0,no,yes,no,300234066890260,unknown,unknown,unknown,North
2020-09-27T01:59:57Z,1601171997,2020,2,0,271.0833,271.0833,81.6582,4.2194,-999.00,-6.9,-999.0,no,yes,no,300234066890260,unknown,unknown,unknown,North
2020-09-27T03:00:00Z,1601175600,2020,3,0,271.125,271.125,81.656,4.2278,-999.00,-6.9,-999.0,no,yes,no,300234066890260,unknown,unknown,unknown,North
2020-09-27T04:00:02Z,1601179203,2020,4,0,271.1667,271.1667,81.6544,4.2358,-999.00,-6.9,-999.0,no,yes,no,300234066890260,unknown,unknown,unknown,North
2020-09-27T04:59:57Z,1601182797,2020,5,0,271.2083,271.2083,81.6522,4.2442,-999.00,-7.1,-999.0,no,yes,no,300234066890260,unknown,unknown,unknown,North
2020-09-27T06:00:00Z,1601186400,2020,6,0,271.25,271.25,81.65,4.2582,-999.00,-7.4,-999.0,no,yes,no,300234066890260,unknown,unknown,unknown,North
2020-09-27T07:00:02Z,1601190003,2020,7,0,271.2917,271.2917,81.6478,4.2782,-999.00,-7.6,-999.0,no,yes,no,300234066890260,unknown,unknown,unknown,North
2020-09-27T07:59:57Z,1601193597,2020,8,0,271.3333,271.3333,81.6446,4.298,-999.00,-7.5,-999.0,no,yes,no,300234066890260,unknown,unknown,unknown,North
2020-09-27T09:00:00Z,1601197200,2020,9,0,271.375,271.375,81.64,4.3094,-999.00,-7.6,-999.0,no,yes,no,300234066890260,unknown,unknown,unknown,North
2020-09-27T10:00:02Z,1601200803,2020,10,0,271.4167,271.4167,81.6348,4.3038,-999.00,-7.7,-999.0,no,yes,no,300234066890260,unknown,unknown,unknown,North
2020-09-27T10:59:57Z,1601204397,2020,11,0,271.4583,271.4583,81.6304,4.2816,-999.00,-7.9,-999.0,no,yes,no,300234066890260,unknown,unknown,unknown,North
2020-09-27T12:00:00Z,1601208000,2020,12,0,271.5,271.5,81.6274,4.2502,-999.00,-8.2,-999.0,no,yes,no,300234066890260,unknown,unknown,unknown,North
2020-09-27T13:00:02Z,1601211603,2020,13,0,271.5417,271.5417,81.626,4.2162,-999.00,-8.3,-999.0,no,yes,no,300234066890260,unknown,unknown,unknown,North
2020-09-27T13:59:57Z,1601215197,2020,14,0,271.5833,271.5833,81.6252,4.186,-999.00,-8.4,-999.0,no,yes,no,300234066890260,unknown,unknown,unknown,North
2020-09-27T15:00:00Z,1601218800,2020,15,0,271.625,271.625,81.6248,4.1626,-999.00,-8.6,-999.0,no,yes,no,300234066890260,unknown,unknown,unknown,North
2020-09-27T16:00:02Z,1601222403,2020,16,0,271.6667,271.6667,81.6248,4.1474,-999.00,-8.6,-999.0,no,yes,no,300234066890260,unknown,unknown,unknown,North
2020-09-27T16:59:57Z,1601225997,2020,17,0,271.7083,271.7083,81.6246,4.1366,-999.00,-8.5,-999.0,no,yes,no,300234066890260,unknown,unknown,unknown,North
2020-09-27T18:00:00Z,1601229600,2020,18,0,271.75,271.75,81.6244,4.1298,-999.00,-8.3,-999.0,no,yes,no,300234066890260,unknown,unknown,unknown,North
2020-09-27T19:00:02Z,1601233203,2020,19,0,271.7917,271.7917,81.6234,4.1294,-999.00,-8.0,-999.0,no,yes,no,300234066890260,unknown,unknown,unknown,North
2020-09-27T19:59:57Z,1601236797,2020,20,0,271.8333,271.8333,81.6218,4.1332,-999.00,-7.9,-999.0,no,yes,no,300234066890260,unknown,unknown,unknown,North
2020-09-27T21:00:00Z,1601240400,2020,21,0,271.875,271.875,81.6198,4.1398,-999.00,-8.0,-999.0,no,yes,no,300234066890260,unknown,unknown,unknown,North
2020-09-27T22:00:02Z,1601244003,2020,22,0,271.9167,271.9167,81.6172,4.145,-999.00,-8.0,-999.0,no,yes,no,300234066890260,unknown,unknown,unknown,North
2020-09-27T22:59:57Z,1601247597,2020,23,0,271.9583,271.9583,81.614,4.146,-999.00,-8.2,-999.0,no,yes,no,300234066890260,unknown,unknown,unknown,North
2020-09-28T00:00:00Z,1601251200,2020,0,0,272.0,272.0,81.6104,4.1428,-999.00,-8.4,-999.0,no,yes,no,300234066890260,unknown,unknown,unknown,North
2020-09-28T01:00:02Z,1601254803,2020,1,0,272.0417,272.0417,81.6068,4.1376,-999.00,-8.6,-999.0,no,yes,no,300234066890260,unknown,unknown,unknown,North
2020-09-28T01:59:57Z,1601258397,2020,2,0,272.0833,272.0833,81.6034,4.1328,-999.00,-8.7,-999.0,no,yes,no,300234066890260,unknown,unknown,unknown,North
2020-09-28T03:00:00Z,1601262000,2020,3,0,272.125,272.125,81.5998,4.127,-999.00,-8.8,-999.0,no,yes,no,300234066890260,unknown,unknown,unknown,North
2020-09-28T04:00:02Z,1601265603,2020,4,0,272.1667,272.1667,81.5958,4.121,-999.00,-9.0,-999.0,no,yes,no,300234066890260,unknown,unknown,unknown,North
2020-09-28T04:59:57Z,1601269197,2020,5,0,272.2083,272.2083,81.5916,4.1162,-999.00,-9.1,-999.0,no,yes,no,300234066890260,unknown,unknown,unknown,North
2020-09-28T06:00:00Z,1601272800,2020,6,0,272.25,272.25,81.587,4.1126,-999.00,-9.3,-999.0,no,yes,no,300234066890260,unknown,unknown,unknown,North
2020-09-28T07:00:02Z,1601276403,2020,7,0,272.2917,272.2917,81.582,4.1104,-999.00,-9.3,-999.0,no,yes,no,300234066890260,unknown,unknown,unknown,North
2020-09-28T07:59:57Z,1601279997,2020,8,0,272.3333,272.3333,81.5772,4.1076,-999.00,-9.3,-999.0,no,yes,no,300234066890260,unknown,unknown,unknown,North
2020-09-28T09:00:00Z,1601283600,2020,9,0,272.375,272.375,81.5722,4.1022,-999.00,-9.3,-999.0,no,yes,no,300234066890260,unknown,unknown,unknown,North
2020-09-28T10:00:02Z,1601287203,2020,10,0,272.4167,272.4167,81.5674,4.0926,-999.00,-9.2,-999.0,no,yes,no,300234066890260,unknown,unknown,unknown,North
2020-09-28T10:59:57Z,1601290797,2020,11,0,272.4583,272.4583,81.5632,4.08,-999.00,-9.2,-999.0,no,yes,no,300234066890260,unknown,unknown,unknown,North
2020-09-28T12:00:00Z,1601294400,2020,12,0,272.5,272.5,81.5596,4.0636,-999.00,-8.9,-999.0,no,yes,no,300234066890260,unknown,unknown,unknown,North
2020-09-28T13:00:02Z,1601298003,2020,13,0,272.5417,272.5417,81.5564,4.0434,-999.00,-8.3,-999.0,no,yes,no,300234066890260,unknown,unknown,unknown,North
2020-09-28T13:59:57Z,1601301597,2020,14,0,272.5833,272.5833,81.5542,4.0162,-999.00,-7.6,-999.0,no,yes,no,300234066890260,unknown,unknown,unknown,North
2020-09-28T15:00:00Z,1601305200,2020,15,0,272.625,272.625,81.5524,3.985,-999.00,-7.0,-999.0,no,yes,no,300234066890260,unknown,unknown,unknown,North
2020-09-28T16:00:02Z,1601308803,2020,16,0,272.6667,272.6667,81.5506,3.948,-999.00,-6.4,-999.0,no,yes,no,300234066890260,unknown,unknown,unknown,North
2020-09-28T16:59:57Z,1601312397,2020,17,0,272.7083,272.7083,81.55,3.9064,-999.00,-6.0,-999.0,no,yes,no,300234066890260,unknown,unknown,unknown,North
2020-09-28T18:00:00Z,1601316000,2020,18,0,272.75,272.75,81.5504,3.8764,-999.00,-5.7,-999.0,no,yes,no,300234066890260,unknown,unknown,unknown,North
2020-09-28T19:00:02Z,1601319603,2020,19,0,272.7917,272.7917,81.5506,3.8638,-999.00,-5.4,-999.0,no,yes,no,300234066890260,unknown,unknown,unknown,North
2020-09-28T19:59:57Z,1601323197,2020,20,0,272.8333,272.8333,81.55,3.8652,-999.00,-5.2,-999.0,no,yes,no,300234066890260,unknown,unknown,unknown,North
2020-09-28T21:00:00Z,1601326800,2020,21,0,272.875,272.875,81.5488,3.874,-999.00,-5.0,-999.0,no,yes,no,300234066890260,unknown,unknown,unknown,North
2020-09-28T22:00:02Z,1601330403,2020,22,0,272.9167,272.9167,81.5476,3.8858,-999.00,-4.9,-999.0,no,yes,no,300234066890260,unknown,unknown,unknown,North
2020-09-28T22:59:57Z,1601333997,2020,23,0,272.9583,272.9583,81.546,3.8932,-999.00,-4.8,-999.0,no,yes,no,300234066890260,unknown,unknown,unknown,North
2020-09-29T00:00:00Z,1601337600,2020,0,0,273.0,273.0,81.5442,3.8916,-999.00,-4.7,-999.0,no,yes,no,300234066890260,unknown,unknown,unknown,North
2020-09-29T01:00:02Z,1601341203,2020,1,0,273.0417,273.0417,81.5432,3.8828,-999.00,-4.6,-999.0,no,yes,no,300234066890260,unknown,unknown,unknown,North
2020-09-29T01:59:57Z,1601344797,2020,2,0,273.0833,273.0833,81.5416,3.8698,-999.00,-4.6,-999.0,no,yes,no,300234066890260,unknown,unknown,unknown,North
2020-09-29T03:00:00Z,1601348400,2020,3,0,273.125,273.125,81.5396,3.8596,-999.00,-4.6,-999.0,no,yes,no,300234066890260,unknown,unknown,unknown,North
2020-09-29T04:00:02Z,1601352003,2020,4,0,273.1667,273.1667,81.5372,3.8512,-999.00,-4.6,-999.0,no,yes,no,300234066890260,unknown,unknown,unknown,North
2020-09-29T04:59:57Z,1601355597,2020,5,0,273.2083,273.2083,81.5346,3.8438,-999.00,-4.8,-999.0,no,yes,no,300234066890260,unknown,unknown,unknown,North
2020-09-29T06:00:00Z,1601359200,2020,6,0,273.25,273.25,81.531,3.8334,-999.00,-5.0,-999.0,no,yes,no,300234066890260,unknown,unknown,unknown,North
2020-09-29T07:00:02Z,1601362803,2020,7,0,273.2917,273.2917,81.5258,3.8202,-999.00,-5.2,-999.0,no,yes,no,300234066890260,unknown,unknown,unknown,North
2020-09-29T07:59:57Z,1601366397,2020,8,0,273.3333,273.3333,81.5204,3.798,-999.00,-5.5,-999.0,no,yes,no,300234066890260,unknown,unknown,unknown,North
2020-09-29T09:00:00Z,1601370000,2020,9,0,273.375,273.375,81.5146,3.774,-999.00,-5.6,-999.0,no,yes,no,300234066890260,unknown,unknown,unknown,North
2020-09-29T10:00:02Z,1601373603,2020,10,0,273.4167,273.4167,81.5076,3.7434,-999.00,-5.6,-999.0,no,yes,no,300234066890260,unknown,unknown,unknown,North
2020-09-29T10:59:57Z,1601377197,2020,11,0,273.4583,273.4583,81.5012,3.7046,-999.00,-5.5,-999.0,no,yes,no,300234066890260,unknown,unknown,unknown,North
2020-09-29T12:00:00Z,1601380800,2020,12,0,273.5,273.5,81.4952,3.658,-999.00,-5.4,-999.0,no,yes,no,300234066890260,unknown,unknown,unknown,North
2020-09-29T13:00:02Z,1601384403,2020,13,0,273.5417,273.5417,81.4898,3.603,-999.00,-5.3,-999.0,no,yes,no,300234066890260,unknown,unknown,unknown,North
2020-09-29T13:59:57Z,1601387997,2020,14,0,273.5833,273.5833,81.4842,3.5408,-999.00,-5.2,-999.0,no,yes,no,300234066890260,unknown,unknown,unknown,North
2020-09-29T15:00:00Z,1601391600,2020,15,0,273.625,273.625,81.4788,3.4736,-999.00,-5.0,-999.0,no,yes,no,300234066890260,unknown,unknown,unknown,North
2020-09-29T16:00:02Z,1601395203,2020,16,0,273.6667,273.6667,81.4738,3.3984,-999.00,-4.8,-999.0,no,yes,no,300234066890260,unknown,unknown,unknown,North
2020-09-29T16:59:57Z,1601398797,2020,17,0,273.7083,273.7083,81.4688,3.309,-999.00,-4.5,-999.0,no,yes,no,300234066890260,unknown,unknown,unknown,North
2020-09-29T18:00:00Z,1601402400,2020,18,0,273.75,273.75,81.4642,3.2094,-999.00,-4.2,-999.0,no,yes,no,300234066890260,unknown,unknown,unknown,North
2020-09-29T19:00:02Z,1601406003,2020,19,0,273.7917,273.7917,81.46,3.1116,-999.00,-4.0,-999.0,no,yes,no,300234066890260,unknown,unknown,unknown,North
2020-09-29T19:59:57Z,1601409597,2020,20,0,273.8333,273.8333,81.4556,3.0222,-999.00,-3.9,-999.0,no,yes,no,300234066890260,unknown,unknown,unknown,North
2020-09-29T21:00:00Z,1601413200,2020,21,0,273.875,273.875,81.4512,2.9438,-999.00,-3.8,-999.0,no,yes,no,300234066890260,unknown,unknown,unknown,North
2020-09-29T22:00:02Z,1601416803,2020,22,0,273.9167,273.9167,81.4458,2.8742,-999.00,-3.9,-999.0,no,yes,no,300234066890260,unknown,unknown,unknown,North
2020-09-29T22:59:57Z,1601420397,2020,23,0,273.9583,273.9583,81.4396,2.8138,-999.00,-3.9,-999.0,no,yes,no,300234066890260,unknown,unknown,unknown,North
2020-09-30T00:00:00Z,1601424000,2020,0,0,274.0,274.0,81.4332,2.7592,-999.00,-3.8,-999.0,no,yes,no,300234066890260,unknown,unknown,unknown,North
2020-09-30T01:00:02Z,1601427603,2020,1,0,274.0417,274.0417,81.4266,2.709,-999.00,-3.8,-999.0,no,yes,no,300234066890260,unknown,unknown,unknown,North
2020-09-30T01:59:57Z,1601431197,2020,2,0,274.0833,274.0833,81.4198,2.6598,-999.00,-3.7,-999.0,no,yes,no,300234066890260,unknown,unknown,unknown,North
2020-09-30T03:00:00Z,1601434800,2020,3,0,274.125,274.125,81.413,2.6094,-999.00,-3.7,-999.0,no,yes,no,300234066890260,unknown,unknown,unknown,North
2020-09-30T04:00:02Z,1601438403,2020,4,0,274.1667,274.1667,81.406,2.5554,-999.00,-3.6,-999.0,no,yes,no,300234066890260,unknown,unknown,unknown,North
2020-09-30T04:59:57Z,1601441997,2020,5,0,274.2083,274.2083,81.399,2.5006,-999.00,-3.5,-999.0,no,yes,no,300234066890260,unknown,unknown,unknown,North
2020-09-30T06:00:00Z,1601445600,2020,6,0,274.25,274.25,81.3922,2.4476,-999.00,-3.5,-999.0,no,yes,no,300234066890260,unknown,unknown,unknown,North
2020-09-30T07:00:02Z,1601449203,2020,7,0,274.2917,274.2917,81.3848,2.3938,-999.00,-3.4,-999.0,no,yes,no,300234066890260,unknown,unknown,unknown,North
2020-09-30T07:59:57Z,1601452797,2020,8,0,274.3333,274.3333,81.3768,2.341,-999.00,-3.3,-999.0,no,yes,no,300234066890260,unknown,unknown,unknown,North
2020-09-30T09:00:00Z,1601456400,2020,9,0,274.375,274.375,81.3686,2.288,-999.00,-3.3,-999.0,no,yes,no,300234066890260,unknown,unknown,unknown,North
2020-09-30T10:00:02Z,1601460003,2020,10,0,274.4167,274.4167,81.3602,2.2338,-999.00,-3.2,-999.0,no,yes,no,300234066890260,unknown,unknown,unknown,North
2020-09-30T10:59:57Z,1601463597,2020,11,0,274.4583,274.4583,81.3522,2.1776,-999.00,-3.2,-999.0,no,yes,no,300234066890260,unknown,unknown,unknown,North
2020-09-30T12:00:00Z,1601467200,2020,12,0,274.5,274.5,81.3444,2.1216,-999.00,-3.2,-999.0,no,yes,no,300234066890260,unknown,unknown,unknown,North
2020-09-30T13:00:02Z,1601470803,2020,13,0,274.5417,274.5417,81.3366,2.0642,-999.00,-3.2,-999.0,no,yes,no,300234066890260,unknown,unknown,unknown,North
2020-09-30T13:59:57Z,1601474397,2020,14,0,274.5833,274.5833,81.3292,2.0058,-999.00,-3.2,-999.0,no,yes,no,300234066890260,unknown,unknown,unknown,North
2020-09-30T15:00:00Z,1601478000,2020,15,0,274.625,274.625,81.322,1.9484,-999.00,-3.2,-999.0,no,yes,no,300234066890260,unknown,unknown,unknown,North
2020-09-30T16:00:02Z,1601481603,2020,16,0,274.6667,274.6667,81.3158,1.8942,-999.00,-3.1,-999.0,no,yes,no,300234066890260,unknown,unknown,unknown,North
2020-09-30T16:59:57Z,1601485197,2020,17,0,274.7083,274.7083,81.3096,1.8458,-999.00,-3.1,-999.0,no,yes,no,300234066890260,unknown,unknown,unknown,North
2020-09-30T18:00:00Z,1601488800,2020,18,0,274.75,274.75,81.3034,1.8018,-999.00,-3.0,-999.0,no,yes,no,300234066890260,unknown,unknown,unknown,North
2020-09-30T19:00:02Z,1601492403,2020,19,0,274.7917,274.7917,81.2976,1.764,-999.00,-3.1,-999.0,no,yes,no,300234066890260,unknown,unknown,unknown,North
2020-09-30T19:59:57Z,1601495997,2020,20,0,274.8333,274.8333,81.2926,1.7314,-999.00,-3.1,-999.0,no,yes,no,300234066890260,unknown,unknown,unknown,North
2020-09-30T21:00:00Z,1601499600,2020,21,0,274.875,274.875,81.287,1.7066,-999.00,-3.1,-999.0,no,yes,no,300234066890260,unknown,unknown,unknown,North
2020-09-30T22:00:02Z,1601503203,2020,22,0,274.9167,274.9167,81.282,1.6846,-999.00,-3.0,-999.0,no,yes,no,300234066890260,unknown,unknown,unknown,North
2020-09-30T22:59:57Z,1601506797,2020,23,0,274.9583,274.9583,81.2772,1.669,-999.00,-3.0,-999.0,no,yes,no,300234066890260,unknown,unknown,unknown,North
2020-10-01T00:00:00Z,1601510400,2020,0,0,275.0,275.0,81.2724,1.6634,-999.00,-3.0,-999.0,no,yes,no,300234066890260,unknown,unknown,unknown,North